Location: Asheville, NC
(35.6000°N, 82.5500°W)
Time: 15:46:47
(UTC-04:00)

Vanguard 2 - Pass Details

Date: 09 December 2017
Orbit: 553 x 2939 km, 32.9° (Epoch: 15 July)

Event Time Altitude Azimuth Distance (km) Brightness Sun altitude
Rises 14:50:10 0° 211° (SSW) 4,709 13.1 21.9°
Reaches altitude 10° 14:55:10 10° 193° (SSW) 3,206 12.1 21.3°
Maximum altitude 14:59:30 16° 158° (SSE) 2,338 10.5 20.7°
Drops below altitude 10° 15:02:56 10° 121° (ESE) 2,428 10.1 20.3°
Sets 15:05:56 0° 98° (E) 3,097 10.3 19.9°
